Location: Brasstown Bald
(34.8693°N, 83.8103°W)
Time: 09:37:13
(UTC-04:00)

Amateur Radio Satellites - All Passes

Search period start: 04 July 2015 09:07
Search period end: 05 July 2015 09:07
Location: Brasstown Bald, 34.8693°N, 83.8103°W

Satellite Date Start Highest point End Downlink Frequencies (MHz)
Time Altitude Azimuth
BEESAT 3 04 Jul 09:08:54 09:11:58 20° 309° (NW) 09:14:57 437.485
BEESAT 2 04 Jul 09:20:39 09:23:40 19° 310° (NW) 09:26:38 435.950
CUTE 1.7 + AOD 2 04 Jul 09:21:01 09:23:55 18° 93° (E) 09:26:59 437.475
ISS 04 Jul 09:22:29 09:25:29 34° 323° (NW) 09:28:30 145.825
DANDE 04 Jul 09:23:33 09:31:13 70° 279° (W) 09:37:08 436.750
CANX-2 04 Jul 09:23:59 09:27:19 22° 94° (E) 09:30:44 2200.000
CINEMA 3 04 Jul 09:33:49 09:35:05 11° 91° (E) 09:36:37 145.822/145.860
M-CUBED/EXP-1 PRIME 04 Jul 09:34:47 09:37:58 50° 255° (WSW) 09:41:15 437.505
GOMX 1 04 Jul 09:35:05 09:39:10 51° 100° (E) 09:43:12 467.674
GONETS M04 04 Jul 09:44:59 09:53:32 60° 92° (E) 10:02:06
VERMONT LUNAR 04 Jul 09:51:02 09:53:55 34° 349° (N) 09:56:50 437.305
BRITE-PL 04 Jul 09:58:11 10:02:16 43° 286° (WNW) 10:06:11 437.365/2234.400
PHONESAT 2.4 04 Jul 10:02:57 10:06:23 81° 157° (SSE) 10:09:50 2401.200-2431.200
CUSAT 1 04 Jul 10:07:37 10:12:29 21° 284° (WNW) 10:16:23 437.405
SEEDS 04 Jul 10:08:51 10:13:03 56° 100° (E) 10:17:15 437.485
RS-15 04 Jul 10:11:55 10:20:07 22° 32° (NNE) 10:28:59 29.354- 29.394
Cosmos 2499 04 Jul 10:15:28 10:17:43 12° 82° (E) 10:20:32 435.465 / 435.565
DOVE 4 04 Jul 10:20:40 10:24:49 73° 284° (WNW) 10:28:58 437.250
AAUSAT CUBESAT 2 04 Jul 10:20:49 10:24:55 50° 99° (E) 10:29:02 437.432
HO-68 04 Jul 10:21:26 10:28:38 83° 104° (ESE) 10:35:49 435.675
CUBEBUG 2 04 Jul 10:22:46 10:25:56 21° 95° (E) 10:29:15 437.445
ZACube-1 04 Jul 10:27:20 10:29:24 14° 92° (E) 10:31:43 437.345
Oscar 11 04 Jul 10:35:30 10:39:22 31° 97° (E) 10:43:16 145.826/435.025
AIST 2 04 Jul 10:38:08 10:40:25 14° 313° (NW) 10:42:33 435.215
DELFI C3 04 Jul 10:39:08 10:42:20 23° 95° (E) 10:45:36 145.870
UNISAT 6 04 Jul 10:41:51 10:45:17 24° 71° (ENE) 10:48:47 437.425
COMPASS 1 04 Jul 10:46:37 10:50:49 63° 284° (WNW) 10:54:59 437.405
QB50P2 04 Jul 10:53:18 10:55:13 13° 68° (ENE) 10:57:22 145.880/145.840
POPSAT HIP 1 04 Jul 10:54:10 10:56:02 13° 68° (ENE) 10:58:07 437.405
CUTE 1.7 + AOD 2 04 Jul 10:56:06 10:59:54 31° 287° (WNW) 11:03:39 437.475
CANX-2 04 Jul 10:59:37 11:03:12 25° 288° (WNW) 11:06:41 2200.000
FUNcube-1 04 Jul 11:02:07 11:06:00 35° 98° (E) 11:09:59 145.935
CINEMA 3 04 Jul 11:08:35 11:12:35 45° 285° (WNW) 11:16:39 145.822/145.860
UWE-3 04 Jul 11:13:38 11:17:51 69° 101° (E) 11:22:09 435.000/436.395/437.385
GOMX 1 04 Jul 11:16:05 11:16:55 10° 293° (WNW) 11:17:29 467.674
ANTELSAT 04 Jul 11:25:24 11:29:42 83° 78° (ENE) 11:33:59 437.575/2403.000
VERMONT LUNAR 04 Jul 11:28:29 11:31:17 29° 6° (N) 11:34:06 437.305
QB50P1 04 Jul 11:31:02 11:34:54 35° 73° (ENE) 11:38:48 145.935-145.965
TIGRISAT 04 Jul 11:37:54 11:42:11 73° 258° (WSW) 11:46:27 435.000
VELOX 1 04 Jul 11:37:59 11:40:35 16° 92° (E) 11:43:23 145.980
PHONESAT 2.4 04 Jul 11:41:25 11:44:36 34° 351° (N) 11:47:49 2401.200-2431.200
GONETS M04 04 Jul 11:43:49 11:50:59 26° 291° (WNW) 11:57:50
NANOSAT C BR1 04 Jul 11:45:04 11:49:11 52° 75° (ENE) 11:53:19 145.865
DX 1 04 Jul 11:47:12 11:51:17 39° 98° (E) 11:55:21 434.975-435.025
SEEDS 04 Jul 11:47:15 11:48:25 11° 292° (WNW) 11:49:18 437.485
DUCHIFAT 1 04 Jul 11:52:01 11:56:12 63° 76° (ENE) 12:00:23 145.980
POLYITAN 1 04 Jul 11:56:44 12:00:59 77° 77° (ENE) 12:05:14 437.675
AAUSAT CUBESAT 2 04 Jul 11:58:34 12:00:08 12° 292° (WNW) 12:01:26 437.432
CUBEBUG 2 04 Jul 11:59:03 12:02:37 26° 288° (WNW) 12:06:10 437.445
ZACube-1 04 Jul 12:01:59 12:05:58 40° 286° (WNW) 12:09:59 437.345
Cosmos 2499 04 Jul 12:02:57 12:10:02 83° 277° (W) 12:17:10 435.465 / 435.565
UKube-1 04 Jul 12:08:19 12:12:37 66° 101° (ESE) 12:16:53 .
BUGSAT 1 04 Jul 12:09:57 12:14:10 67° 76° (ENE) 12:18:22 437.445
HO-68 04 Jul 12:11:15 12:15:37 17° 300° (WNW) 12:19:39 435.675
Oscar 11 04 Jul 12:12:14 12:15:21 19° 290° (WNW) 12:18:20 145.826/435.025
DELFI C3 04 Jul 12:14:06 12:17:20 22° 288° (WNW) 12:20:28 145.870
UNISAT 6 04 Jul 12:18:33 12:22:02 23° 265° (W) 12:25:23 437.425
50 SAT 04 Jul 12:20:02 12:23:55 63° 101° (E) 12:27:49 437.505
HUMSAT D 04 Jul 12:22:33 12:26:39 56° 284° (WNW) 12:30:45 437.325/437.525
RS-15 04 Jul 12:23:29 12:35:15 72° 58° (ENE) 12:47:27 29.354- 29.394
AISAT 04 Jul 12:23:38 12:27:59 58° 101° (E) 12:32:19 437.250
QB50P2 04 Jul 12:26:41 12:30:47 44° 261° (W) 12:34:51 145.880/145.840
POPSAT HIP 1 04 Jul 12:27:28 12:31:33 45° 261° (W) 12:35:38 437.405
FUNcube-1 04 Jul 12:39:23 12:42:05 16° 290° (WNW) 12:44:39 145.935
CUBEBUG 1 04 Jul 12:42:15 12:46:29 48° 99° (E) 12:50:41 437.445
ESTCUBE 1 04 Jul 12:54:51 12:59:25 84° 102° (ESE) 13:03:56 437.505/2401.250
VERMONT LUNAR 04 Jul 13:05:20 13:08:28 77° 22° (NNE) 13:11:39 437.305
QB50P1 04 Jul 13:08:17 13:10:55 15° 268° (W) 13:13:22 145.935-145.965
VELOX 1 04 Jul 13:13:14 13:17:20 37° 287° (WNW) 13:21:21 145.980
PHONESAT 2.4 04 Jul 13:19:53 13:23:06 34° 9° (N) 13:26:19 2401.200-2431.200
NANOSAT C BR1 04 Jul 13:24:35 13:25:23 10° 270° (W) 13:25:52 145.865
DX 1 04 Jul 13:24:36 13:27:13 15° 292° (WNW) 13:29:41 434.975-435.025
Oscar 19 04 Jul 13:40:39 13:45:14 35° 71° (ENE) 13:49:53 437.125/150
SPROUT 04 Jul 13:44:49 13:49:06 73° 102° (ESE) 13:53:22 437.525
Gurwin Techsat 1B 04 Jul 13:48:30 13:49:52 11° 64° (ENE) 13:51:33 435.225
ITAMSAT 1 04 Jul 13:54:44 13:56:44 13° 64° (ENE) 13:59:02 435.822/435.867
AISAT 04 Jul 14:02:47 14:04:06 11° 294° (WNW) 14:05:10 437.250
Cosmos 2499 04 Jul 14:03:12 14:04:35 10° 298° (WNW) 14:05:20 435.465 / 435.565
CUBEBUG 1 04 Jul 14:20:26 14:22:27 13° 293° (WNW) 14:24:15 437.445
TISAT 1 04 Jul 14:27:09 14:31:15 53° 285° (WNW) 14:35:17 437.305
RS-15 04 Jul 14:37:13 14:47:02 29° 254° (WSW) 14:56:32 29.354- 29.394
VERMONT LUNAR 04 Jul 14:42:58 14:45:10 17° 215° (SW) 14:47:18 437.305
BEESAT 04 Jul 14:49:07 14:53:28 35° 97° (E) 14:57:50 436.000
AO-7 04 Jul 14:56:28 15:01:13 17° 56° (NE) 15:06:25 29.400- 29.500
PHONESAT 2.4 04 Jul 14:57:51 15:01:19 81° 206° (SSW) 15:04:48 2401.200-2431.200
SWISSCUBE 04 Jul 15:04:25 15:09:10 57° 101° (E) 15:13:52 437.505
ITUPSAT 1 04 Jul 15:09:41 15:14:26 58° 101° (E) 15:19:10 437.325
Oscar 19 04 Jul 15:20:34 15:24:41 23° 266° (W) 15:28:39 437.125/150
YUBILEINY 04 Jul 15:23:12 15:31:53 64° 80° (E) 15:40:36 435.215
Gurwin Techsat 1B 04 Jul 15:23:55 15:29:13 81° 256° (WSW) 15:34:35 435.225
AIST 1 04 Jul 15:29:37 15:31:35 13° 88° (E) 15:33:47
ITAMSAT 1 04 Jul 15:30:29 15:35:42 72° 258° (WSW) 15:40:56 435.822/435.867
JAS-2 04 Jul 15:36:03 15:40:26 30° 69° (ENE) 15:45:02 435.910
Cosmos 2491 04 Jul 15:39:59 15:48:14 48° 90° (E) 15:56:34 435.465 / 435.565
ISS 04 Jul 15:52:20 15:55:30 51° 40° (NE) 15:58:40 145.825
HORYU 2 04 Jul 16:00:34 16:04:20 29° 71° (ENE) 16:08:09 437.375
KKS-1 04 Jul 16:04:23 16:08:27 35° 98° (E) 16:12:32 437.445
PCSat 04 Jul 16:18:09 16:23:29 65° 113° (ESE) 16:28:52 145.827
BEESAT 04 Jul 16:27:28 16:31:06 21° 291° (WNW) 16:34:35 436.000
PHONESAT 2.4 04 Jul 16:37:05 16:39:01 14° 217° (SW) 16:40:52 2401.200-2431.200
SWISSCUBE 04 Jul 16:44:09 16:46:34 13° 294° (WNW) 16:48:45 437.505
AO-7 04 Jul 16:44:40 16:53:01 87° 72° (ENE) 17:01:26 29.400- 29.500
ITUPSAT 1 04 Jul 16:49:29 16:51:53 13° 294° (WNW) 16:54:01 437.325
STARS 04 Jul 16:56:14 17:00:38 87° 106° (ESE) 17:05:00 437.465
SO-50 04 Jul 16:59:56 17:04:13 37° 113° (ESE) 17:08:41 436.795
JUGNU 04 Jul 17:00:10 17:03:11 14° 169° (S) 17:06:17 437.505
AIST 1 04 Jul 17:04:43 17:08:53 41° 281° (W) 17:13:04
O/OREOS (USA 219) 04 Jul 17:10:05 17:11:33 12° 55° (NE) 17:13:16 437.305
JAS-2 04 Jul 17:21:21 17:25:39 25° 266° (W) 17:29:54 435.910
YUBILEINY 04 Jul 17:21:29 17:28:06 23° 276° (W) 17:34:19 435.215
Cosmos 2504 04 Jul 17:21:43 17:28:42 40° 77° (ENE) 17:36:14 435.465 / 435.565
AIST 2 04 Jul 17:23:18 17:25:45 15° 48° (NE) 17:28:17 435.215
BEESAT 3 04 Jul 17:29:11 17:33:15 88° 243° (WSW) 17:37:13 437.485
ISS 04 Jul 17:30:29 17:31:36 11° 232° (SW) 17:32:33 145.825
Cosmos 2491 04 Jul 17:37:32 17:45:21 33° 288° (WNW) 17:52:59 435.465 / 435.565
HORYU 2 04 Jul 17:37:35 17:40:59 21° 266° (W) 17:44:16 437.375
BEESAT 2 04 Jul 17:41:26 17:45:31 83° 242° (WSW) 17:49:31 435.950
KKS-1 04 Jul 17:41:50 17:44:50 18° 291° (WNW) 17:47:41 437.445
SRMSAT 04 Jul 17:54:31 17:55:17 10° 165° (SSE) 17:56:10 437.500
MOZHAYETS 4 04 Jul 17:57:58 18:02:36 66° 101° (E) 18:07:13
PCSat 04 Jul 18:03:54 18:07:27 17° 311° (NW) 18:10:48 145.827
CUTE-I 04 Jul 18:07:21 18:11:15 22° 68° (ENE) 18:15:19 437.470
Cubesat XI-IV 04 Jul 18:40:15 18:45:18 45° 72° (ENE) 18:50:25 437.490
SO-50 04 Jul 18:41:04 18:44:54 23° 311° (NW) 18:48:43 436.795
AO-7 04 Jul 18:41:55 18:46:55 16° 270° (W) 18:51:20 29.400- 29.500
O/OREOS (USA 219) 04 Jul 18:46:59 18:51:28 62° 253° (WSW) 18:55:57 437.305
JUGNU 04 Jul 18:47:30 18:51:32 19° 179° (S) 18:55:33 437.505
AIST 2 04 Jul 19:00:35 19:04:36 46° 245° (WSW) 19:08:32 435.215
Cosmos 2504 04 Jul 19:14:02 19:20:49 35° 271° (W) 19:27:52 435.465 / 435.565
STRAND 1 04 Jul 19:24:02 19:26:14 13° 90° (E) 19:28:46 437.568
BRITE-PL 04 Jul 19:28:44 19:31:29 15° 68° (ENE) 19:34:27 437.365/2234.400
MOZHAYETS 4 04 Jul 19:37:57 19:39:19 11° 294° (WNW) 19:40:25
SRMSAT 04 Jul 19:40:01 19:43:45 17° 174° (S) 19:47:30 437.500
CUTE-I 04 Jul 19:46:00 19:51:04 42° 262° (W) 19:56:09 437.470
GONETS M04 04 Jul 20:00:25 20:06:57 24° 68° (ENE) 20:13:48
CUBESAT XI-V 04 Jul 20:01:59 20:06:39 72° 284° (WNW) 20:11:16 437.345
DANDE 04 Jul 20:10:30 20:13:10 55° 80° (E) 20:15:42 436.750
PRISM 04 Jul 20:12:06 20:16:02 38° 98° (E) 20:19:57 437.425
CANX-2 04 Jul 20:16:05 20:17:04 11° 68° (ENE) 20:18:18 2200.000
Cubesat XI-IV 04 Jul 20:21:46 20:25:39 19° 267° (W) 20:29:21 437.490
JUGNU 04 Jul 20:36:24 20:39:52 16° 189° (S) 20:43:16 437.505
GOMX 1 04 Jul 20:39:10 20:44:04 43° 74° (ENE) 20:48:43 467.674
HO-68 04 Jul 20:46:19 20:52:58 44° 69° (ENE) 20:59:41 435.675
CUSAT 1 04 Jul 20:48:51 20:50:14 13° 266° (W) 20:51:32 437.405
SEEDS 04 Jul 20:58:07 21:01:29 25° 72° (ENE) 21:04:57 437.485
STRAND 1 04 Jul 21:00:51 21:05:55 60° 286° (WNW) 21:10:57 437.568
BRITE-PL 04 Jul 21:04:07 21:09:38 64° 259° (W) 21:14:50 437.365/2234.400
AAUSAT CUBESAT 2 04 Jul 21:08:57 21:12:06 22° 71° (ENE) 21:15:21 437.432
M-CUBED/EXP-1 PRIME 04 Jul 21:18:50 21:21:17 15° 98° (E) 21:24:02 437.505
CUBEBUG 2 04 Jul 21:19:36 21:21:16 12° 69° (ENE) 21:23:09 437.445
DOVE 4 04 Jul 21:22:14 21:27:12 76° 76° (ENE) 21:31:51 437.250
Oscar 11 04 Jul 21:28:06 21:30:47 17° 69° (ENE) 21:33:37 145.826/435.025
SRMSAT 04 Jul 21:28:22 21:32:14 18° 184° (S) 21:36:05 437.500
COMPASS 1 04 Jul 21:34:16 21:38:18 54° 75° (ENE) 21:42:23 437.405
CUTE 1.7 + AOD 2 04 Jul 21:44:58 21:49:09 67° 260° (W) 21:53:21 437.475
CANX-2 04 Jul 21:48:28 21:52:34 53° 261° (W) 21:56:42 2200.000
PRISM 04 Jul 21:48:45 21:51:10 15° 292° (WNW) 21:53:24 437.425
FUNcube-1 04 Jul 21:55:38 21:58:31 19° 71° (ENE) 22:01:30 145.935
GONETS M04 04 Jul 21:55:58 22:04:31 63° 268° (W) 22:13:00
Cosmos 2499 04 Jul 21:57:07 22:03:41 29° 73° (ENE) 22:10:52 435.465 / 435.565
CINEMA 3 04 Jul 22:06:33 22:11:08 78° 258° (WSW) 22:15:31 145.822/145.860
UWE-3 04 Jul 22:07:48 22:11:40 35° 74° (ENE) 22:15:31 435.000/436.395/437.385
AUBIESAT-1 04 Jul 22:17:24 22:21:42 62° 105° (ESE) 22:26:14 437.475
GOMX 1 04 Jul 22:18:42 22:22:20 18° 267° (W) 22:25:39 467.674
SEEDS 04 Jul 22:34:00 22:37:16 21° 266° (W) 22:40:26 437.485
HO-68 04 Jul 22:34:39 22:40:51 30° 264° (W) 22:46:54 435.675
VELOX 1 04 Jul 22:34:41 22:35:16 10° 66° (ENE) 22:36:07 145.980
DX 1 04 Jul 22:40:00 22:43:26 23° 70° (ENE) 22:46:58 434.975-435.025
AAUSAT CUBESAT 2 04 Jul 22:44:13 22:47:36 24° 265° (W) 22:50:56 437.432
M-CUBED/EXP-1 PRIME 04 Jul 22:52:07 22:56:13 44° 290° (WNW) 23:00:34 437.505
CUBEBUG 2 04 Jul 22:53:28 22:57:39 47° 261° (W) 23:01:44 437.445
ZACube-1 04 Jul 22:54:18 22:58:32 80° 258° (WSW) 23:02:43 437.345
DELFI C3 04 Jul 22:57:01 23:00:57 57° 260° (W) 23:04:55 145.870
UKube-1 04 Jul 22:59:54 23:03:51 36° 73° (ENE) 23:07:51 .
50 SAT 04 Jul 23:01:38 23:04:31 21° 72° (ENE) 23:07:29 437.505
Oscar 11 04 Jul 23:02:46 23:06:43 35° 263° (W) 23:10:39 145.826/435.025
HUMSAT D 04 Jul 23:10:46 23:14:49 63° 76° (ENE) 23:18:52 437.325/437.525
AISAT 04 Jul 23:18:09 23:22:12 35° 72° (ENE) 23:26:16 437.250
SRMSAT 04 Jul 23:18:32 23:20:42 12° 193° (SSW) 23:22:45 437.500
ANTELSAT 04 Jul 23:21:04 23:24:27 22° 95° (E) 23:27:59 437.575/2403.000
FUNcube-1 04 Jul 23:30:59 23:34:41 29° 264° (W) 23:38:18 145.935
TIGRISAT 04 Jul 23:32:57 23:36:44 28° 96° (E) 23:40:39 435.000
CUBEBUG 1 04 Jul 23:35:20 23:39:03 27° 72° (ENE) 23:42:52 437.445
NANOSAT C BR1 04 Jul 23:35:58 23:36:45 11° 90° (E) 23:37:49 145.865
DUCHIFAT 1 04 Jul 23:41:55 23:43:39 13° 91° (E) 23:45:38 145.980
UWE-3 04 Jul 23:45:46 23:48:21 15° 268° (W) 23:50:44 435.000/436.395/437.385
POLYITAN 1 04 Jul 23:46:46 23:49:16 16° 93° (E) 23:51:56 437.675
Cosmos 2499 04 Jul 23:49:27 23:57:07 52° 268° (W) 00:05:15 435.465 / 435.565
ESTCUBE 1 04 Jul 23:51:01 23:55:23 50° 75° (ENE) 23:59:48 437.505/2401.250
AUBIESAT-1 04 Jul 23:54:26 23:56:05 12° 296° (WNW) 23:57:31 437.475
BUGSAT 1 04 Jul 23:57:47 23:59:07 12° 91° (E) 00:00:42 437.445
VELOX 1 05 Jul 00:06:53 00:11:20 65° 259° (W) 00:15:46 145.980
UNISAT 6 05 Jul 00:12:21 00:16:47 89° 101° (E) 00:21:17 437.425
QB50P2 05 Jul 00:15:18 00:19:11 35° 98° (E) 00:23:05 145.880/145.840
DX 1 05 Jul 00:15:54 00:19:36 26° 264° (W) 00:23:13 434.975-435.025
POPSAT HIP 1 05 Jul 00:15:58 00:19:48 35° 97° (E) 00:23:40 437.405
SPROUT 05 Jul 00:35:45 00:39:40 35° 73° (ENE) 00:43:37 437.525
50 SAT 05 Jul 00:36:06 00:39:04 21° 265° (W) 00:41:57 437.505
UKube-1 05 Jul 00:37:19 00:40:08 16° 267° (W) 00:42:46 .
QB50P1 05 Jul 00:54:41 00:58:53 74° 285° (WNW) 01:03:04 145.935-145.965
AISAT 05 Jul 00:55:47 00:58:53 18° 267° (W) 01:01:50 437.250
ANTELSAT 05 Jul 00:57:27 01:01:14 28° 288° (WNW) 01:05:01 437.575/2403.000
NANOSAT C BR1 05 Jul 01:08:52 01:12:56 49° 285° (WNW) 01:16:59 145.865
PCSat 05 Jul 01:09:54 01:14:22 26° 53° (NE) 01:18:56 145.827
TIGRISAT 05 Jul 01:09:59 01:13:22 21° 289° (WNW) 01:16:41 435.000
CUBEBUG 1 05 Jul 01:11:53 01:15:24 22° 266° (W) 01:18:50 437.445
TISAT 1 05 Jul 01:15:30 01:19:43 70° 77° (ENE) 01:23:57 437.305
DUCHIFAT 1 05 Jul 01:15:45 01:19:43 41° 286° (WNW) 01:23:39 145.980
POLYITAN 1 05 Jul 01:21:29 01:25:18 34° 287° (WNW) 01:29:05 437.675
ESTCUBE 1 05 Jul 01:30:34 01:32:36 12° 270° (W) 01:34:23 437.505/2401.250
BUGSAT 1 05 Jul 01:31:02 01:34:52 41° 286° (WNW) 01:38:38 437.445
SO-50 05 Jul 01:35:16 01:38:28 17° 46° (NE) 01:41:46 436.795
QB50P2 05 Jul 01:52:11 01:54:49 16° 291° (WNW) 01:57:16 145.880/145.840
BEESAT 05 Jul 01:52:36 01:56:35 28° 71° (ENE) 02:00:40 436.000
POPSAT HIP 1 05 Jul 01:52:46 01:55:26 16° 291° (WNW) 01:57:55 437.405
Cosmos 2491 05 Jul 01:55:53 02:01:23 19° 65° (ENE) 02:07:21 435.465 / 435.565
Oscar 19 05 Jul 01:56:38 01:59:33 16° 91° (E) 02:02:45 437.125/150
SWISSCUBE 05 Jul 02:07:41 02:12:11 44° 73° (ENE) 02:16:46 437.505
SPROUT 05 Jul 02:13:07 02:15:54 16° 268° (W) 02:18:28 437.525
ITUPSAT 1 05 Jul 02:13:11 02:17:43 45° 73° (ENE) 02:22:19 437.325
YUBILEINY 05 Jul 02:29:47 02:32:25 12° 80° (E) 02:35:52 435.215
RS-15 05 Jul 02:42:37 02:53:13 64° 113° (ESE) 03:04:10 29.354- 29.394
PCSat 05 Jul 02:52:55 02:57:54 38° 250° (WSW) 03:02:49 145.827
KKS-1 05 Jul 02:59:49 03:03:14 23° 70° (ENE) 03:06:45 437.445
SO-50 05 Jul 03:14:36 03:19:28 58° 244° (WSW) 03:24:11 436.795
AIST 1 05 Jul 03:15:24 03:19:19 32° 78° (ENE) 03:23:13
BEESAT 05 Jul 03:30:26 03:34:25 25° 265° (W) 03:38:19 436.000
Oscar 19 05 Jul 03:34:18 03:39:15 50° 287° (WNW) 03:44:12 437.125/150
Gurwin Techsat 1B 05 Jul 03:43:38 03:48:50 53° 100° (E) 03:54:02 435.225
ITAMSAT 1 05 Jul 03:46:50 03:51:57 54° 100° (E) 03:57:02 435.822/435.867
SWISSCUBE 05 Jul 03:47:19 03:50:19 16° 268° (W) 03:53:06 437.505
STARS 05 Jul 03:49:41 03:53:55 49° 74° (ENE) 03:58:11 437.465
Cosmos 2491 05 Jul 03:50:39 03:59:24 79° 265° (W) 04:08:04 435.465 / 435.565
ITUPSAT 1 05 Jul 03:52:57 03:55:53 15° 268° (W) 03:58:37 437.325
YUBILEINY 05 Jul 04:19:27 04:28:08 82° 95° (E) 04:36:51 435.215
JAS-2 05 Jul 04:30:33 04:37:03 46° 99° (E) 04:44:15 435.910
KKS-1 05 Jul 04:35:54 04:39:45 27° 264° (W) 04:43:32 437.445
AO-7 05 Jul 04:50:39 04:58:06 36° 98° (E) 05:05:40 29.400- 29.500
AIST 1 05 Jul 04:53:57 04:56:43 16° 272° (W) 04:59:17
RS-15 05 Jul 04:56:31 05:06:23 36° 316° (NW) 05:16:20 29.354- 29.394
MOZHAYETS 4 05 Jul 04:56:37 05:00:53 40° 73° (ENE) 05:05:13
Gurwin Techsat 1B 05 Jul 05:25:00 05:28:25 17° 294° (WNW) 05:31:37 435.225
ITAMSAT 1 05 Jul 05:27:48 05:31:03 16° 294° (WNW) 05:34:05 435.822/435.867
STARS 05 Jul 05:28:52 05:30:42 12° 269° (W) 05:32:16 437.465
HORYU 2 05 Jul 05:30:42 05:35:11 86° 287° (WNW) 05:39:40 437.375
Cosmos 2504 05 Jul 05:49:51 05:55:32 29° 88° (E) 06:01:21 435.465 / 435.565
Cosmos 2491 05 Jul 05:52:07 05:55:05 11° 281° (W) 05:57:12 435.465 / 435.565
JAS-2 05 Jul 06:16:07 06:21:57 31° 290° (WNW) 06:28:09 435.910
YUBILEINY 05 Jul 06:20:26 06:26:10 18° 295° (WNW) 06:31:23 435.215
MOZHAYETS 4 05 Jul 06:35:29 06:38:20 16° 269° (W) 06:41:00
STRAND 1 05 Jul 06:36:53 06:39:33 15° 66° (ENE) 06:42:29 437.568
AO-7 05 Jul 06:43:10 06:51:01 45° 294° (WNW) 06:58:44 29.400- 29.500
PRISM 05 Jul 06:59:41 07:02:34 19° 69° (ENE) 07:05:36 437.425
Cubesat XI-IV 05 Jul 07:01:32 07:05:42 23° 94° (E) 07:10:00 437.490
CUBESAT XI-V 05 Jul 07:01:37 07:06:18 75° 77° (ENE) 07:11:01 437.345
VERMONT LUNAR 05 Jul 07:14:39 07:17:28 32° 149° (SSE) 07:20:19 437.305
O/OREOS (USA 219) 05 Jul 07:17:44 07:21:06 22° 103° (ESE) 07:24:35 437.305
BEESAT 3 05 Jul 07:18:37 07:22:21 36° 114° (ESE) 07:26:09 437.485
RS-15 05 Jul 07:18:59 07:23:48 13° 349° (N) 07:28:25 29.354- 29.394
BEESAT 2 05 Jul 07:31:43 07:35:32 40° 114° (ESE) 07:39:26 435.950
DANDE 05 Jul 07:34:44 07:38:36 16° 92° (E) 07:42:25 436.750
Cosmos 2504 05 Jul 07:41:07 07:47:34 38° 284° (WNW) 07:53:54 435.465 / 435.565
CUTE-I 05 Jul 08:06:11 08:11:34 80° 285° (WNW) 08:16:54 437.470
CUSAT 1 05 Jul 08:06:18 08:12:31 40° 96° (E) 08:17:27 437.405
STRAND 1 05 Jul 08:13:16 08:18:20 59° 260° (W) 08:23:25 437.568
ISS 05 Jul 08:28:42 08:31:56 75° 320° (NW) 08:35:10 145.825
PRISM 05 Jul 08:34:10 08:37:50 29° 263° (W) 08:41:28 437.425
Cubesat XI-IV 05 Jul 08:40:59 08:45:55 37° 289° (WNW) 08:50:45 437.490
GOMX 1 05 Jul 08:46:28 08:48:10 13° 91° (E) 08:50:07 467.674
VERMONT LUNAR 05 Jul 08:51:19 08:54:20 45° 343° (NNW) 08:57:21 437.305
AIST 2 05 Jul 08:54:43 08:58:58 83° 120° (ESE) 09:03:16 435.215
O/OREOS (USA 219) 05 Jul 08:56:32 09:00:23 27° 297° (WNW) 09:04:12 437.305
BEESAT 3 05 Jul 08:57:36 09:00:28 18° 310° (NW) 09:03:13 437.485
